Weather History for KZZV - February, 2014

Change the Weather History Date:

Tuesday, February 4, 2014

  Actual Average Record
Temperature  
Mean Temperature 29 °F 30 °F  
Max Temperature 31 °F 39 °F 64 °F (1991)
Min Temperature 26 °F 21 °F -10 °F (1985)
Degree Days  
Heating Degree Days 36 35  
Month to date heating degree days 126 140  
Since 1 July heating degree days 3582 3407  
Cooling Degree Days 0 0  
Month to date cooling degree days 0 0  
Year to date cooling degree days 0 0  
Moisture  
Dew Point 19 °F    
Average Humidity 73    
Maximum Humidity 92    
Minimum Humidity 53    
Precipitation  
Precipitation T in 0.08 in 0.87 in (1986)
Month to date precipitation 0.29 0.32  
Year to date precipitation 1.59 2.98  
Sea Level Pressure  
Sea Level Pressure 30.20 in    
Wind  
Wind Speed 4 mph (NE)    
Max Wind Speed 12 mph    
Max Gust Speed -    
Visibility 4 miles    
Events Fog , Snow    
T = Trace of Precipitation, MM = Missing Value Source: NWS Daily Summary

Daily Weather History Graph

Daily Weather History Graph

Search for Another Location

Airport or City:

Trip Planner

Search our weather history database for the weather conditions in past years. The results will help you decide how hot, cold, wet, or windy it might be!

Date:

Astronomy

Feb. 04, 2014 Rise Set
Actual Time 7:32 AM EST 5:50 PM EST
Civil Twilight 7:04 AM EST 6:18 PM EST
Nautical Twilight 6:32 AM EST 6:51 PM EST
Astronomical Twilight 6:00 AM EST 7:22 PM EST
Moon 10:10 AM EST (2/4) 11:43 PM EST (2/4)
Length of Visible Light 11h 14m
Length of Day
10h 17m
Waxing Crescent, 29% of the Moon is Illuminated
Feb 4
Waxing Crescent
Feb 6
First Quarter
Feb 14
Full
Feb 22
Last Quarter
Mar 1
New

Hourly Weather History & Observations

Time (EST) Temp. Windchill Dew Point Humidity Pressure Visibility Wind Dir Wind Speed Gust Speed Precip Events Conditions
12:53 AM 19.0 °F - 12.9 °F 77% 30.38 in 6.0 mi Calm Calm - N/A   Haze
1:53 AM 18.0 °F - 12.0 °F 78% 30.38 in 6.0 mi Calm Calm - N/A   Haze
2:53 AM 18.0 °F - 12.0 °F 78% 30.39 in 5.0 mi Calm Calm - N/A   Haze
3:53 AM 19.0 °F 13.9 °F 12.0 °F 74% 30.37 in 5.0 mi NE 3.5 mph - N/A   Haze
4:53 AM 19.0 °F - 12.9 °F 77% 30.37 in 5.0 mi Calm Calm - N/A   Haze
5:53 AM 19.0 °F - 12.9 °F 77% 30.38 in 5.0 mi Calm Calm - N/A   Haze
6:53 AM 19.9 °F 14.9 °F 12.9 °F 74% 30.40 in 5.0 mi NE 3.5 mph - N/A   Haze
7:53 AM 19.9 °F 14.9 °F 14.0 °F 78% 30.40 in 4.0 mi NNE 3.5 mph - N/A   Haze
8:53 AM 21.0 °F - 15.1 °F 78% 30.42 in 4.0 mi Calm Calm - N/A   Haze
9:53 AM 23.0 °F - 17.1 °F 78% 30.43 in 4.0 mi Calm Calm - N/A   Haze
10:53 AM 25.0 °F 20.7 °F 18.0 °F 75% 30.41 in 4.0 mi East 3.5 mph - N/A   Haze
11:53 AM 27.0 °F 18.0 °F 18.0 °F 69% 30.35 in 6.0 mi ENE 9.2 mph - N/A   Haze
12:53 PM 28.0 °F 19.3 °F 18.0 °F 66% 30.30 in 7.0 mi East 9.2 mph - N/A   Clear
1:53 PM 30.0 °F 21.7 °F 17.1 °F 59% 30.26 in 7.0 mi East 9.2 mph - N/A   Clear
2:54 PM - - - N/A% - - North - - N/A   Unknown
4:38 PM 30.9 °F 23.5 °F 17.1 °F 57% 30.19 in 8.0 mi NE 8.1 mph - N/A   Overcast
4:53 PM 30.9 °F 22.2 °F 17.1 °F 57% 30.17 in 8.0 mi NNE 10.4 mph - N/A   Overcast
5:53 PM 30.9 °F 25.2 °F 17.1 °F 57% 30.18 in 10.0 mi NNE 5.8 mph - N/A   Overcast
6:53 PM 30.9 °F 25.2 °F 16.0 °F 54% 30.17 in 10.0 mi Variable 5.8 mph - N/A   Overcast
7:53 PM 30.0 °F 21.7 °F 17.1 °F 59% 30.13 in 2.0 mi NE 9.2 mph - 0.00 in Snow Light Snow
7:56 PM 30.0 °F 21.7 °F 18.0 °F 61% 30.13 in 1.2 mi NE 9.2 mph - 0.00 in Snow Light Snow
8:03 PM 28.9 °F 19.8 °F 19.9 °F 69% 30.13 in 0.5 mi NE 10.4 mph - 0.00 in Snow Snow
8:23 PM 26.1 °F 16.2 °F 23.0 °F 88% 30.11 in 0.2 mi NE 10.4 mph - 0.00 in Fog , Snow Heavy Snow
8:32 PM 26.1 °F 15.6 °F 23.0 °F 88% 30.10 in 0.2 mi NE 11.5 mph - 0.00 in Fog , Snow Heavy Snow
8:53 PM 26.1 °F 15.6 °F 23.0 °F 88% 30.07 in 0.2 mi NNE 11.5 mph - 0.00 in Fog , Snow Heavy Snow
9:31 PM 26.1 °F 17.6 °F 23.0 °F 88% 30.05 in 0.2 mi NE 8.1 mph - 0.00 in Fog , Snow Heavy Snow
9:42 PM 26.1 °F 16.2 °F 23.0 °F 88% 30.04 in 0.2 mi NE 10.4 mph - 0.00 in Fog , Snow Heavy Snow
9:53 PM 26.1 °F 16.8 °F 24.1 °F 92% 30.03 in 0.2 mi NE 9.2 mph - 0.00 in Fog , Snow Heavy Snow
10:09 PM 26.1 °F 16.8 °F 24.1 °F 92% 30.02 in 0.2 mi NE 9.2 mph - 0.00 in Fog , Snow Heavy Snow
10:29 PM 26.1 °F 18.4 °F 24.1 °F 92% 30.03 in 0.5 mi NE 6.9 mph - 0.00 in Fog , Snow Snow
10:50 PM 26.6 °F 18.2 °F 24.8 °F 93% 30.01 in 0.2 mi NE 8.1 mph - 0.00 in Fog , Snow Heavy Snow
10:53 PM 26.1 °F 17.6 °F 24.1 °F 92% 30.01 in 0.2 mi NE 8.1 mph - 0.00 in Fog , Snow Heavy Snow
11:33 PM 26.1 °F 17.6 °F 24.1 °F 92% 29.98 in 0.8 mi NE 8.1 mph - 0.00 in Snow Light Snow
11:39 PM 27.0 °F 18.7 °F 24.1 °F 89% 29.97 in 1.5 mi NE 8.1 mph - 0.00 in Snow Light Snow
11:53 PM 27.0 °F 18.7 °F 24.1 °F 89% 29.96 in 1.8 mi ENE 8.1 mph - 0.00 in Snow Light Snow